Home > Weather > Bryansk > Past weeks

Flag for Russia Weather for the Past 2 Weeks in Bryansk, Russia

Now
32 °F

Low clouds.


Feels Like: 22 °F
Forecast: 32 / 36 °F
Wind: 13 mph from South

Location: Brjansk

Current Time: Feb 10, 2016 at 5:45:04 AM

Latest Report: Feb 10, 2016 at 5:00 AM


Visibility: 6 mi

Pressure: 29.95 "Hg

Humidity: 93%

Dew point: 30 °F

Location of BryanskLocation

Historic Weather in Bryansk — Graph

°F

Bryansk Temperature Yesterday

Maximum temperature yesterday: 34 °F (at 1:00 PM)
Minimum temperature yesterday: 28 °F (at 6:00 PM)
Average temperature yesterday: 31 °F

High & Low Weather Summary for the Past Weeks

 TemperatureHumidityPressure
High39 °F (Feb 3, 1:30 PM)100% (Jan 27, 5:00 PM)30.27 "Hg (Jan 27, 5:00 PM)
Low12 °F (Jan 26, 5:30 AM)56% (Feb 8, 4:30 PM)29.45 "Hg (Jan 31, 5:00 PM)
Average31 °F83%29.86 "Hg
* Reported Jan 26 5:30 AM — Feb 10 4:00 AM, Bryansk, Weather by CustomWeather, © 2016

Note: Actual official high and low records may vary slightly from our data, if they occured in-between our weather recording intervals... More about our weather records

Advertising

Bryansk Weather History for the Previous 24 Hours

 ConditionsComfort  
Time TempWeatherWind HumidityBarometerVisibility
4:00 AM
Wed, Feb 10
32 °FLow clouds.15 mph93%29.92 "Hg6 mi
6:30 PM
Tue, Feb 9
28 °FPartly sunny.20 mph80%29.95 "HgN/A
6:00 PM28 °FPartly sunny.17 mph80%29.95 "HgN/A
5:30 PM30 °FPartly sunny.17 mph75%29.95 "HgN/A
5:00 PM30 °FPartly sunny.20 mph75%29.95 "HgN/A
4:30 PM32 °FPartly sunny.20 mph69%29.95 "HgN/A
3:30 PM34 °FScattered clouds.13 mph70%29.95 "HgN/A
3:00 PM34 °FScattered clouds.13 mph70%29.95 "HgN/A
2:30 PM34 °FScattered clouds.13 mph70%29.95 "HgN/A
1:30 PM34 °FScattered clouds.13 mph70%29.95 "HgN/A
1:00 PM34 °FScattered clouds.13 mph70%29.98 "HgN/A
12:30 PM32 °FPartly sunny.17 mph75%29.98 "HgN/A
12:00 PM32 °FPartly sunny.15 mph75%30.01 "HgN/A
11:30 AM30 °FPartly sunny.15 mph80%30.01 "HgN/A
11:00 AM30 °FPartly sunny.17 mph80%30.01 "HgN/A
10:30 AM30 °FPartly sunny.15 mph80%30.01 "HgN/A
10:00 AM30 °FPartly sunny.15 mph80%30.01 "HgN/A
9:30 AM30 °FPartly sunny.13 mph80%30.01 "HgN/A
9:00 AM30 °FPassing clouds.15 mph80%30.01 "HgN/A
Weather by CustomWeather, © 2016

See weather overviewHow to use our weather pages